User: anonymous   Login
Location: Santa Barbara
(34.4500°N, 119.7700°W)
Time: 14:39:55
(UTC-08:00)
Language:

Cosmos 1892 Rocket - Orbit

View from above orbital plane
View from above orbital plane
View from above satellite
View from above satellite

Ground track
Ground track

The orbit data is extracted from the following two-line orbital elements,

1 18422U 87088B   15062.95641117  .00000595  00000-0  70842-4 0  9990
2 18422 082.5092 240.3199 0018721 316.1862 204.3662 14.82632402477899
Epoch (UTC): 03 March 2015 22:57:13
Eccentricity: 0.0018721
inclination: 82.5092°
perigee height: 608 km
apogee height: 634 km
right ascension of ascending node: 240.3199°
argument of perigee: 316.1862°
revolutions per day: 14.82632402
mean anomaly at epoch: 204.3662°
orbit number at epoch: 47789

The dashed part of the orbit path shows where the satellite is in the earth's shadow,  

DLR